Hourly Data Report for January 04, 2018

All times are specified in Local Standard Time (LST). Add 1 hour to adjust for Daylight Saving Time where and when it is observed.

TORONTO INTL A
ONTARIO

43°40'36.000" N
79°37'50.000" W
173.40 m
6158731
71624
YYZ

Download Data

Hourly Data (January 2018)
Hourly Data Report for January 4, 2018
Temp Definition
°C
Dew Point Temp Definition
°C
Rel Hum Definition
%
Wind Dir Definition
10's deg

Wind Spd Definition
km/h
Visibility Definition
km
Stn Press Definition
kPa
Hmdx Definition


Wind Chill Definition


Weather Definition


TIME
00:00 Legend Double Dagger -9.2 -13.4 71 22 10 24.1 99.32   -14 LegendNANA
01:00 Legend Double Dagger -9.2 -13.5 71 22 8 19.3 99.27   -14 Snow
02:00 Legend Double Dagger -9.2 -13.1 73 25 14 19.3 99.28   -16 Snow
03:00 Legend Double Dagger -9.2 -13.1 74 24 12 24.1 99.26   -15 LegendNANA
04:00 Legend Double Dagger -9.6 -13.2 75 26 14 24.1 99.18   -16 Mostly Cloudy
05:00 Legend Double Dagger -9.8 -13.3 76 29 15 24.1 99.18   -16 LegendNANA
06:00 Legend Double Dagger -10.1 -14.6 70 32 26 24.1 99.25   -19 LegendNANA
07:00 Legend Double Dagger -11.3 -16.5 66 31 19 24.1 99.25   -19 Mainly Clear
08:00 Legend Double Dagger -12.4 -17.7 65 31 26 24.1 99.25   -22 LegendNANA
09:00 Legend Double Dagger -12.9 -18.0 66 32 32 24.1 99.17   -24 LegendNANA
10:00 Legend Double Dagger -11.5 -17.0 64 32 33 24.1 99.10   -22 Mainly Clear
11:00 Legend Double Dagger -10.9 -18.2 55 34 41 24.1 99.14   -22 LegendNANA
12:00 Legend Double Dagger -11.3 -17.9 58 36 33 24.1 99.18   -22 LegendNANA
13:00 Legend Double Dagger -11.6 -18.8 56 34 38 24.1 99.13   -23 Mainly Clear
14:00 Legend Double Dagger -11.7 -19.1 55 34 40 24.1 99.08   -23 LegendNANA
15:00 Legend Double Dagger -11.9 -19.2 55 32 38 24.1 99.07   -23 LegendNANA
16:00 Legend Double Dagger -12.6 -19.2 58 33 28 24.1 99.10   -23 Mainly Clear
17:00 Legend Double Dagger -13.9 -20.3 59 32 42 24.1 99.11   -26 LegendNANA
18:00 Legend Double Dagger -14.9 -20.9 60 32 36 24.1 99.12   -27 LegendNANA
19:00 Legend Double Dagger -15.2 -20.9 62 34 28 24.1 99.15   -26 Mainly Clear
20:00 Legend Double Dagger -17.4 -22.3 66 34 34 24.1 99.21   -30 LegendNANA
21:00 Legend Double Dagger -18.1 -23.2 65 35 35 24.1 99.23   -31 LegendNANA
22:00 Legend Double Dagger -18.9 -24.1 64 35 24 24.1 99.25   -30 Clear
23:00 Legend Double Dagger -19.5 -24.8 64 33 31 24.1 99.26   -32 LegendNANA

Notes on Data Quality.

Legend

  • E = Estimated
  • M = Missing
  • NA = Not Available
  • ‡ = Partner data that is not subject to review by the National Climate Archives
Date modified: